Detroit, MI

12:35 PM EST on January 21, 2018 (GMT -0500)
Detroit City

Weather History for KDET - July, 2013

Change the Weather History Date:

Wednesday, July 31, 2013

  Actual Average Record
Temperature  
Mean Temperature 70 °F -  
Max Temperature 77 °F 82 °F 96 °F (1975)
Min Temperature 64 °F 63 °F 53 °F (1981)
Cooling Degree Days 4    
Growing Degree Days 20 (Base 50)    
Moisture  
Dew Point 64 °F    
Average Humidity 79    
Maximum Humidity 93    
Minimum Humidity 62    
Precipitation  
Precipitation 0.29 in - - ()
Sea Level Pressure  
Sea Level Pressure 29.99 in    
Wind  
Wind Speed 3 mph (South)    
Max Wind Speed 9 mph    
Max Gust Speed -    
Visibility 8 miles    
Events Rain    
Averages and records for this station are not official NWS values.
T = Trace of Precipitation, MM = Missing Value Source: NWS Daily Summary

Daily Weather History Graph

Daily Weather History Graph

Search for Another Location

Airport or City:

Trip Planner

Search our weather history database for the weather conditions in past years. The results will help you decide how hot, cold, wet, or windy it might be!

Date:

Astronomy

Jul. 31, 2013 Rise Set
Actual Time 6:23 AM EDT 8:52 PM EDT
Civil Twilight 5:51 AM EDT 9:24 PM EDT
Nautical Twilight 5:12 AM EDT 10:03 PM EDT
Astronomical Twilight 4:27 AM EDT 10:48 PM EDT
Moon 1:18 AM EDT (7/31) 4:08 PM EDT (7/31)
Length of Visible Light 15h 32m
Length of Day
14h 28m
Waning Crescent, 32% of the Moon is Illuminated
Jul 31
Waning Crescent
Aug 6
New
Aug 14
First Quarter
Aug 20
Full
Aug 28
Last Quarter

Hourly Weather History & Observations

Time (EDT) Temp. Dew Point Humidity Pressure Visibility Wind Dir Wind Speed Gust Speed Precip Events Conditions
12:53 AM 66.0 °F 57.9 °F 75% 30.14 in 10.0 mi Calm Calm - N/A   Clear
1:53 AM 64.9 °F 57.0 °F 75% 30.13 in 10.0 mi Calm Calm - N/A   Clear
3:53 AM 66.0 °F 59.0 °F 78% 30.11 in 10.0 mi SE 3.5 mph - N/A   Clear
4:53 AM 66.0 °F 60.1 °F 81% 30.10 in 10.0 mi Calm Calm - N/A   Clear
5:53 AM 66.0 °F 61.0 °F 84% 30.09 in 10.0 mi SE 3.5 mph - N/A   Mostly Cloudy
6:53 AM 66.0 °F 61.0 °F 84% 30.10 in 10.0 mi SE 3.5 mph - N/A   Overcast
7:53 AM 69.1 °F 63.0 °F 81% 30.09 in 10.0 mi SSE 4.6 mph - N/A   Overcast
8:53 AM 71.1 °F 64.0 °F 78% 30.09 in 10.0 mi Calm Calm - N/A   Mostly Cloudy
9:53 AM 73.0 °F 63.0 °F 71% 30.08 in 10.0 mi South 4.6 mph - N/A   Overcast
10:53 AM 73.9 °F 63.0 °F 68% 30.07 in 10.0 mi South 8.1 mph - N/A   Overcast
11:53 AM 73.9 °F 62.1 °F 66% 30.06 in 10.0 mi South 5.8 mph - N/A   Overcast
12:53 PM 73.0 °F 61.0 °F 66% 30.05 in 10.0 mi SSW 6.9 mph - N/A   Overcast
1:53 PM 75.9 °F 62.1 °F 62% 30.02 in 10.0 mi Variable 5.8 mph - 0.00 in   Mostly Cloudy
2:53 PM 75.0 °F 63.0 °F 66% 30.01 in 10.0 mi SSE 6.9 mph - 0.00 in   Overcast
3:53 PM 75.9 °F 62.1 °F 62% 29.99 in 10.0 mi ESE 8.1 mph - N/A   Overcast
4:53 PM 73.9 °F 61.0 °F 64% 29.97 in 10.0 mi SSE 6.9 mph - N/A   Overcast
5:53 PM 72.0 °F 62.1 °F 71% 29.96 in 8.0 mi North - - 0.00 in Rain Light Rain
5:54 PM 71.6 °F 62.6 °F 73% 29.96 in 8.0 mi SSE 8.1 mph - 0.00 in Rain Light Rain
6:53 PM 72.0 °F 64.0 °F 76% 29.93 in 10.0 mi SSE 4.6 mph - 0.01 in   Overcast
7:25 PM 71.6 °F 64.4 °F 78% 29.92 in 8.0 mi SSE 4.6 mph - 0.00 in Rain Light Rain
7:44 PM 71.6 °F 66.2 °F 83% 29.92 in 1.8 mi SSW 6.9 mph - 0.05 in Rain Rain
7:53 PM 70.0 °F 66.0 °F 87% 29.92 in 2.0 mi SW 3.5 mph - 0.09 in Rain Rain
8:18 PM 69.8 °F 66.2 °F 88% 29.93 in 4.0 mi Calm Calm - 0.04 in Rain Light Rain
8:25 PM 69.8 °F 66.2 °F 88% 29.92 in 2.5 mi Calm Calm - 0.05 in Rain Light Rain
8:34 PM 69.8 °F 66.2 °F 88% 29.92 in 2.5 mi Calm Calm - 0.06 in Rain Light Rain
8:46 PM 69.8 °F 66.2 °F 88% 29.92 in 1.8 mi Calm Calm - 0.08 in Rain Light Rain
8:53 PM 69.1 °F 66.9 °F 93% 29.91 in 1.5 mi Calm Calm - 0.11 in Rain Rain
9:05 PM 69.8 °F 66.2 °F 88% 29.91 in 3.0 mi SW 4.6 mph - 0.01 in Rain Light Rain
9:48 PM 69.8 °F 66.2 °F 88% 29.91 in 7.0 mi SW 9.2 mph - 0.04 in Rain Light Rain
9:53 PM 70.0 °F 66.9 °F 90% 29.90 in 8.0 mi SW 8.1 mph - 0.04 in   Overcast
10:53 PM 69.1 °F 66.0 °F 90% 29.89 in 6.0 mi WSW 6.9 mph - 0.03 in Rain Light Rain
11:01 PM 69.8 °F 66.2 °F 88% 29.89 in 5.0 mi SW 9.2 mph - 0.00 in Rain Light Rain
11:36 PM 69.8 °F 66.2 °F 88% 29.88 in 10.0 mi WSW 9.2 mph - 0.01 in   Overcast
11:53 PM 69.1 °F 66.9 °F 93% 29.87 in 10.0 mi West 6.9 mph - 0.01 in   Overcast